• Join FlightAware (Why Join?)
  • Login
  • US Flag 
10:14AM EDT


 

Airport Tracker/Info


-or-


 

Live Flight TrackerFlight Track Log ✈ ASH3751 ✈ 20-Jun-2013 ✈ KORD - KALB

Flight Track Log - Related Links

Times and Time Zones

All times are in EDT time to prevent confusion due to time zone crossing. See the ASH3751 flight status page for this flight to view local times or setup timezone preferences in your user account.

Time Position Orientation Groundspeed Altitude Reporting Facility
EDT Latitude Longitude Course Direction KTS MPH feet Rate Location/Type
10:56PM 42.0000 -87.8500 64° Northeast 192 221 2,500  Level Chicago TRACON
10:57PM 42.0169 -87.8025 64° Northeast 221 254 3,500 1,800 Climbing Chicago Center
10:58PM 42.0539 -87.7111 61° Northeast 263 303 5,900 2,580 Climbing Chicago Center
10:59PM 42.0869 -87.6117 66° East 288 331 8,900 2,520 Climbing Chicago Center
11:00PM 42.1300 -87.4892 65° Northeast 298 343 11,200 2,100 Climbing Chicago Center
11:01PM 42.1711 -87.3731 64° Northeast 333 383 13,300 1,860 Climbing Chicago Center
11:02PM 42.2142 -87.2492 65° Northeast 358 412 15,000 1,800 Climbing Chicago Center
11:03PM 42.2578 -87.1203 65° Northeast 376 433 17,000 1,680 Climbing Chicago Center
11:04PM 42.2797 -86.9772 78° East 393 452 18,500 1,620 Climbing Chicago Center
11:05PM 42.2883 -86.8286 85° East 398 458 20,300 1,740 Climbing Chicago Center
11:06PM 42.2936 -86.6681 87° East 407 468 22,100 1,440 Climbing Chicago Center
11:07PM 42.2997 -86.5100 87° East 418 481 23,300 1,260 Climbing Chicago Center
11:08PM 42.3047 -86.3567 87° East 432 497 24,800 1,320 Climbing Chicago Center
11:09PM 42.3122 -86.1619 87° East 437 503 26,100 1,080 Climbing Chicago Center
11:10PM 42.3147 -85.9950 89° East 447 514 27,100 960 Climbing Chicago Center
11:11PM 42.3119 -85.8250 91° East 454 522 28,100 900 Climbing Chicago Center
11:12PM 42.3092 -85.6514 91° East 463 533 29,000 840 Climbing Chicago Center
11:13PM 42.3061 -85.4736 91° East 472 543 29,900 780 Climbing Chicago Center
11:14PM 42.3044 -85.2953 91° East 477 549 30,700 660 Climbing Chicago Center
11:15PM 42.3011 -85.1167 91° East 479 551 31,300 780 Climbing Chicago Center
11:16PM 42.2975 -84.9347 91° East 484 557 32,300 1,200 Climbing Chicago Center
11:17PM 42.3039 -84.7247 88° East 468 539 33,800 1,140 Climbing Chicago Center
11:18PM 42.3192 -84.5536 83° East 462 532 34,700 780 Climbing Chicago Center
11:19PM 42.3328 -84.3836 84° East 458 527 35,400 660 Climbing Chicago Center
11:20PM 42.3439 -84.2356 84° East 457 526 36,000 840 Climbing Cleveland Center
11:21PM 42.3575 -84.0675 84° East 457 526 37,000 480 Climbing Cleveland Center
11:22PM 42.3728 -83.8997 83° East 457 526 37,000  Level Cleveland Center
11:23PM 42.3878 -83.7347 83° East 451 519 37,000  Level Cleveland Center
11:24PM 42.4022 -83.5836 83° East 451 519 37,000  Level Cleveland Center
11:25PM 42.4086 -83.4122 87° East 457 526 37,000  Level Cleveland Center
11:26PM 42.4233 -83.2386 83° East 457 526 37,000  Level Cleveland Center
11:27PM 42.4378 -83.0619 84° East 462 532 37,000  Level Cleveland Center
11:28PM 42.4494 -82.8933 85° East 456 525 37,000  Level Cleveland Center
11:29PM 42.4611 -82.7222 85° East 456 525 37,000  Level Cleveland Center
11:30PM 42.4725 -82.5508 85° East 456 525 37,000  Level Cleveland Center
11:31PM 42.4836 -82.3794 85° East 461 531 37,000 -780 Level Cleveland Center
11:32PM 42.4944 -82.2081 85° East 461 531 35,500 -1,020 Descending Cleveland Center
11:33PM 42.5075 -82.0281 84° East 461 531 35,000 -300 Descending Cleveland Center
11:34PM 42.5178 -81.8508 85° East 466 536 35,000  Level Cleveland Center
11:35PM 42.5344 -81.6539 83° East 471 542 35,000  Level Cleveland Center
11:36PM 42.5442 -81.4878 85° East 478 550 35,000  Level Cleveland Center
11:37PM 42.5539 -81.3047 86° East 483 556 35,000  Level Cleveland Center
11:38PM 42.5653 -81.1217 85° East 483 556 35,000  Level Cleveland Center
11:39PM 42.5764 -80.9411 85° East 478 550 35,000  Level Cleveland Center
11:40PM 42.5850 -80.7608 86° East 478 550 35,000  Level Cleveland Center
11:41PM 42.5956 -80.5606 86° East 478 550 35,000  Level Cleveland Center
11:42PM 42.6039 -80.3772 86° East 478 550 35,000  Level Cleveland Center
11:43PM 42.6117 -80.1911 87° East 478 550 35,000  Level Cleveland Center
11:44PM 42.6214 -80.0047 86° East 484 557 35,000  Level Cleveland Center
11:45PM 42.6350 -79.8211 84° East 489 563 35,000  Level Cleveland Center
11:46PM 42.6419 -79.6406 87° East 489 563 35,000  Level Cleveland Center
11:47PM 42.6506 -79.4597 86° East 479 551 35,000  Level Cleveland Center
11:48PM 42.6550 -79.2761 88° East 479 551 35,000  Level Cleveland Center
11:49PM 42.6653 -79.0953 86° East 479 551 35,000  Level Cleveland Center
11:50PM 42.6689 -78.9086 88° East 479 551 35,000  Level Cleveland Center
11:51PM 42.6786 -78.7250 86° East 479 551 35,000  Level Cleveland Center
11:52PM 42.6839 -78.5439 88° East 479 551 35,000  Level Cleveland Center
11:53PM 42.7014 -78.3597 83° East 479 551 35,000 -600 Level Cleveland Center
11:54PM 42.7333 -78.1806 76° East 484 557 33,800 -1,380 Descending Cleveland Center
11:55PM 42.7586 -78.0042 79° East 484 557 32,300 -1,500 Descending Cleveland Center
11:56PM 42.7667 -77.8144 87° East 489 563 30,800 -1,320 Descending Cleveland Center
11:58PM 42.7700 -77.5294 89° East 498 573 29,000 -720 Descending Boston Center
11:59PM 42.7697 -77.3456 90° East 492 566 29,000  Level Boston Center
12:00AM 42.7714 -77.1589 89° East 487 560 29,000  Level Boston Center
12:01AM 42.7708 -76.9719 90° East 487 560 29,000  Level Boston Center
12:02AM 42.7739 -76.7825 89° East 498 573 29,000  Level Boston Center
12:03AM 42.7728 -76.5928 90° East 498 573 29,000  Level Boston Center
12:04AM 42.7739 -76.4403 89° East 498 573 29,000 -60 Level Boston Center
12:05AM 42.7733 -76.2139 90° East 498 573 28,900 -1,020 Descending Boston Center
12:06AM 42.7750 -76.0328 89° East 492 566 27,000 -1,980 Descending Boston Center
12:07AM 42.7747 -75.8461 90° East 487 560 25,000 -2,040 Descending Boston Center
12:08AM 42.7717 -75.6592 91° East 487 560 23,000 -2,040 Descending Boston Center
12:09AM 42.7703 -75.4836 91° East 481 554 21,000 -2,040 Descending Boston Center
12:10AM 42.7703 -75.3222 90° East 476 548 19,000 -1,980 Descending Boston Center
12:11AM 42.7683 -75.1525 91° East 441 507 17,300 -1,980 Descending Boston Center
12:11AM 42.7656 -74.9969 91° East 449 517 15,500 -1,980 Descending Boston Center
12:12AM 42.7647 -74.8411 90° East 409 471 13,600 -1,740 Descending Boston Center
12:13AM 42.7639 -74.6856 90° East 408 470 12,100 -1,320 Descending Boston Center
12:14AM 42.7606 -74.5328 92° East 408 470 11,000 -600 Descending Boston Center
12:15AM 42.7586 -74.4025 91° East 331 381 10,900 -960 Descending Boston Center
12:16AM 42.7564 -74.2867 91° East 290 334 9,100 -1,860 Descending Boston Center
12:17AM 42.7725 -74.1825 78° East 254 292 7,200 -2,220 Descending Boston Center
12:19AM 42.8011 -74.0983 65° Northeast 234 269 4,700 -1,620 Descending Boston Center
12:20AM 42.8292 -74.0197 64° Northeast 235 270 4,000 -1,080 Descending Boston Center
12:21AM 42.8553 -73.9383 66° East 230 265 2,600 -780 Descending Boston Center
12:22AM 42.8811 -73.8681 63° Northeast 192 221 2,500 -300 Descending Boston Center
12:23AM 42.8631 -73.8167 116° Southeast 179 206 2,100 -540 Descending Boston Center
12:24AM 42.8194 -73.8100 174° South 146 168 1,500 -660 Descending Boston Center
12:25AM 42.7819 -73.8092 179° South 126 145 800 -720 Descending Boston Center
12:27AM 42.7491 -73.8020 90° East  Level Estimated